• In Belgium
  • List of Countries
  • For 7 days
  • Water Temperature
  • Satellite Maps
  • Weather Map
  • Weather Widgets
  • user-avatar
    Login

    Hourly Weather Stretford

    Today, 19 June, Tuesday

    Time Temperature Precipitation Wind Pressure Humidity
    00:00 +15°C° 0 mm 4 mps 761 mmHg 90%
    01:00 +14°C° 0 mm 4 mps 761 mmHg 89%
    02:00 +13°C° 0 mm 3 mps 762 mmHg 88%
    03:00 +12°C° 0 mm 3 mps 762 mmHg 87%
    04:00 +12°C° 0 mm 3 mps 762 mmHg 85%
    05:00 +12°C° 0 mm 3 mps 763 mmHg 82%
    06:00 +13°C° 0 mm 2 mps 763 mmHg 80%
    07:00 +14°C° 0 mm 2 mps 763 mmHg 75%
    08:00 +14°C° 0 mm 3 mps 764 mmHg 70%
    09:00 +17°C° 0 mm 3 mps 764 mmHg 66%
    10:00 +17°C° 0 mm 3 mps 764 mmHg 65%
    11:00 +18°C° 0 mm 3 mps 764 mmHg 64%
    12:00 +19°C° 0 mm 3 mps 763 mmHg 62%
    13:00 +20°C° 0 mm 3 mps 763 mmHg 65%
    14:00 +20°C° 0 mm 3 mps 763 mmHg 67%
    15:00 +20°C° 0 mm 4 mps 763 mmHg 70%
    16:00 +20°C° 0 mm 4 mps 762 mmHg 72%
    17:00 +20°C° 0 mm 4 mps 762 mmHg 74%
    18:00 +20°C° 0 mm 5 mps 762 mmHg 75%
    19:00 +20°C° 0 mm 5 mps 762 mmHg 78%
    20:00 +19°C° 0 mm 5 mps 762 mmHg 80%
    21:00 +19°C° 0 mm 6 mps 762 mmHg 82%
    22:00 +17°C° 0 mm 6 mps 761 mmHg 83%
    23:00 +17°C° 0 mm 6 mps 761 mmHg 84%

    Tomorrow, 20 June, Wednesday

    Time Temperature Precipitation Wind Pressure Humidity
    00:00 +16°C° 0 mm 6 mps 761 mmHg 85%
    01:00 +16°C° 0 mm 6 mps 761 mmHg 85%
    02:00 +16°C° 0 mm 6 mps 761 mmHg 86%
    03:00 +16°C° 0 mm 6 mps 761 mmHg 86%
    04:00 +17°C° 0.1 mm 6 mps 761 mmHg 86%
    05:00 +17°C° 0.1 mm 6 mps 761 mmHg 86%
    06:00 +17°C° 0.1 mm 6 mps 761 mmHg 85%
    07:00 +19°C° 0.3 mm 6 mps 761 mmHg 85%
    08:00 +19°C° 0.3 mm 6 mps 761 mmHg 84%
    09:00 +19°C° 0.3 mm 6 mps 762 mmHg 83%
    10:00 +19°C° 0.3 mm 5 mps 762 mmHg 84%
    11:00 +17°C° 0.3 mm 5 mps 762 mmHg 86%
    12:00 +18°C° 0.3 mm 4 mps 762 mmHg 87%
    13:00 +18°C° 0.2 mm 4 mps 762 mmHg 87%
    14:00 +17°C° 0.2 mm 4 mps 762 mmHg 86%
    15:00 +17°C° 0.2 mm 4 mps 762 mmHg 86%
    16:00 +15°C° 0.1 mm 4 mps 762 mmHg 85%
    17:00 +14°C° 0.1 mm 4 mps 762 mmHg 84%
    18:00 +13°C° 0.1 mm 4 mps 762 mmHg 83%
    19:00 +13°C° 0.1 mm 4 mps 762 mmHg 82%
    20:00 +12°C° 0.1 mm 4 mps 763 mmHg 81%
    21:00 +12°C° 0.1 mm 4 mps 763 mmHg 81%
    22:00 +12°C° 0 mm 4 mps 763 mmHg 80%
    23:00 +11°C° 0 mm 4 mps 763 mmHg 78%

    Day after tomorrow, 21 June, Thursday

    Time Temperature Precipitation Wind Pressure Humidity
    00:00 +11°C° 0 mm 4 mps 764 mmHg 77%
    01:00 +11°C° 0 mm 4 mps 764 mmHg 78%
    02:00 +10°C° 0 mm 4 mps 764 mmHg 80%
    03:00 +9°C° 0 mm 5 mps 764 mmHg 82%
    04:00 +9°C° 0 mm 5 mps 765 mmHg 79%
    05:00 +9°C° 0 mm 5 mps 765 mmHg 76%
    06:00 +9°C° 0 mm 6 mps 765 mmHg 74%
    07:00 +10°C° 0 mm 6 mps 765 mmHg 70%
    08:00 +11°C° 0 mm 6 mps 766 mmHg 65%
    09:00 +12°C° 0 mm 7 mps 766 mmHg 61%
    10:00 +14°C° 0 mm 6 mps 766 mmHg 59%
    11:00 +15°C° 0 mm 6 mps 767 mmHg 58%
    12:00 +16°C° 0 mm 6 mps 767 mmHg 56%
    13:00 +16°C° 0 mm 6 mps 767 mmHg 56%
    14:00 +16°C° 0 mm 6 mps 767 mmHg 56%
    15:00 +16°C° 0 mm 6 mps 767 mmHg 56%
    16:00 +16°C° 0 mm 6 mps 768 mmHg 59%
    17:00 +15°C° 0 mm 6 mps 768 mmHg 61%
    18:00 +15°C° 0 mm 6 mps 768 mmHg 64%
    19:00 +13°C° 0 mm 5 mps 768 mmHg 68%
    20:00 +12°C° 0 mm 5 mps 769 mmHg 72%
    21:00 +11°C° 0 mm 4 mps 769 mmHg 76%
    22:00 +11°C° 0 mm 4 mps 770 mmHg 77%
    23:00 +10°C° 0 mm 4 mps 770 mmHg 79%

    22 June, Friday

    Time Temperature Precipitation Wind Pressure Humidity
    00:00 +10°C° 0 mm 3 mps 770 mmHg 80%
    01:00 +9°C° 0 mm 3 mps 770 mmHg 80%
    02:00 +9°C° 0 mm 3 mps 770 mmHg 81%
    03:00 +8°C° 0 mm 3 mps 770 mmHg 81%
    04:00 +9°C° 0 mm 3 mps 770 mmHg 78%
    05:00 +10°C° 0 mm 2 mps 770 mmHg 76%
    06:00 +10°C° 0 mm 2 mps 771 mmHg 73%
    07:00 +13°C° 0 mm 2 mps 771 mmHg 67%
    08:00 +13°C° 0 mm 3 mps 771 mmHg 61%
    09:00 +16°C° 0 mm 3 mps 771 mmHg 55%
    10:00 +17°C° 0 mm 3 mps 771 mmHg 53%
    11:00 +17°C° 0 mm 3 mps 771 mmHg 51%
    12:00 +18°C° 0 mm 3 mps 771 mmHg 48%
    13:00 +19°C° 0 mm 3 mps 771 mmHg 49%
    14:00 +19°C° 0 mm 3 mps 771 mmHg 50%
    15:00 +19°C° 0 mm 4 mps 771 mmHg 50%
    16:00 +18°C° 0 mm 4 mps 771 mmHg 54%
    17:00 +18°C° 0 mm 4 mps 770 mmHg 57%
    18:00 +17°C° 0 mm 4 mps 770 mmHg 60%
    19:00 +16°C° 0 mm 3 mps 770 mmHg 65%
    20:00 +13°C° 0 mm 3 mps 771 mmHg 69%
    21:00 +12°C° 0 mm 2 mps 771 mmHg 74%
    22:00 +12°C° 0 mm 2 mps 771 mmHg 76%
    23:00 +10°C° 0 mm 2 mps 771 mmHg 78%

    23 June, Saturday

    Time Temperature Precipitation Wind Pressure Humidity
    00:00 +10°C° 0 mm 2 mps 770 mmHg 81%
    01:00 +10°C° 0 mm 2 mps 770 mmHg 82%
    02:00 +9°C° 0 mm 2 mps 770 mmHg 83%
    03:00 +9°C° 0 mm 2 mps 770 mmHg 84%
    04:00 +10°C° 0 mm 2 mps 770 mmHg 82%
    05:00 +10°C° 0 mm 2 mps 770 mmHg 81%
    06:00 +12°C° 0 mm 2 mps 770 mmHg 80%
    07:00 +14°C° 0 mm 2 mps 770 mmHg 74%
    08:00 +14°C° 0 mm 3 mps 770 mmHg 68%
    09:00 +16°C° 0 mm 3 mps 769 mmHg 62%
    10:00 +17°C° 0 mm 3 mps 769 mmHg 59%
    11:00 +18°C° 0 mm 3 mps 769 mmHg 56%
    12:00 +19°C° 0 mm 3 mps 769 mmHg 53%
    13:00 +19°C° 0 mm 3 mps 769 mmHg 53%
    14:00 +19°C° 0 mm 3 mps 768 mmHg 53%
    15:00 +20°C° 0 mm 4 mps 768 mmHg 53%
    16:00 +19°C° 0 mm 3 mps 768 mmHg 56%
    17:00 +18°C° 0 mm 3 mps 768 mmHg 60%
    18:00 +18°C° 0 mm 3 mps 768 mmHg 63%
    19:00 +16°C° 0 mm 3 mps 768 mmHg 68%
    20:00 +15°C° 0 mm 2 mps 768 mmHg 73%
    21:00 +13°C° 0 mm 2 mps 768 mmHg 78%
    22:00 +13°C° 0 mm 2 mps 768 mmHg 79%
    23:00 +12°C° 0 mm 1 mps 768 mmHg 80%

    24 June, Sunday

    Time Temperature Precipitation Wind Pressure Humidity
    00:00 +11°C° 0 mm 1 mps 768 mmHg 81%
    01:00 +11°C° 0 mm 1 mps 768 mmHg 82%
    02:00 +11°C° 0 mm 1 mps 768 mmHg 82%
    03:00 +11°C° 0 mm 1 mps 768 mmHg 83%
    04:00 +12°C° 0 mm 1 mps 767 mmHg 81%
    05:00 +12°C° 0 mm 1 mps 767 mmHg 79%
    06:00 +13°C° 0 mm 1 mps 767 mmHg 77%
    07:00 +15°C° 0 mm 1 mps 767 mmHg 69%
    08:00 +18°C° 0 mm 1 mps 767 mmHg 62%
    09:00 +19°C° 0 mm 1 mps 767 mmHg 55%
    10:00 +19°C° 0 mm 2 mps 767 mmHg 51%
    11:00 +20°C° 0 mm 2 mps 767 mmHg 48%
    12:00 +21°C° 0 mm 2 mps 767 mmHg 44%
    13:00 +21°C° 0 mm 2 mps 766 mmHg 45%
    14:00 +23°C° 0 mm 2 mps 766 mmHg 46%
    15:00 +23°C° 0 mm 2 mps 766 mmHg 46%
    16:00 +23°C° 0 mm 2 mps 766 mmHg 51%
    17:00 +21°C° 0 mm 2 mps 766 mmHg 55%
    18:00 +21°C° 0 mm 2 mps 766 mmHg 60%
    19:00 +19°C° 0 mm 2 mps 766 mmHg 64%
    20:00 +17°C° 0 mm 2 mps 766 mmHg 68%
    21:00 +16°C° 0 mm 1 mps 766 mmHg 72%
    22:00 +15°C° 0 mm 1 mps 766 mmHg 74%
    23:00 +14°C° 0 mm 1 mps 766 mmHg 76%
    Show more